TimeEDT,TemperatureF,Dew PointF,Humidity,Sea Level PressureIn,VisibilityMPH,Wind Direction,Wind SpeedMPH,Gust SpeedMPH,PrecipitationIn,Events,Conditions,WindDirDegrees,DateUTC
12:53 AM,59.0,55.0,87,29.82,10.0,WNW,4.6,-,N/A,,Clear,300,2013-09-03 04:53:00
1:53 AM,57.0,54.0,89,29.81,10.0,WNW,4.6,-,N/A,,Clear,290,2013-09-03 05:53:00
2:23 AM,57.0,53.1,87,29.85,10.0,Calm,Calm,-,N/A,,Mostly Cloudy,0,2013-09-03 06:23:00
2:42 AM,57.0,54.0,89,29.86,10.0,Calm,Calm,-,N/A,,Mostly Cloudy,0,2013-09-03 06:42:00
2:53 AM,57.0,54.0,89,29.84,10.0,WNW,3.5,-,N/A,,Mostly Cloudy,290,2013-09-03 06:53:00
3:53 AM,57.9,55.0,90,29.84,10.0,West,3.5,-,N/A,,Mostly Cloudy,280,2013-09-03 07:53:00
4:53 AM,57.9,55.0,90,29.83,10.0,WNW,4.6,-,N/A,,Overcast,290,2013-09-03 08:53:00
5:20 AM,57.9,55.0,90,29.87,10.0,WSW,3.5,-,N/A,,Overcast,250,2013-09-03 09:20:00
5:53 AM,57.9,54.0,87,29.85,10.0,West,3.5,-,N/A,,Mostly Cloudy,270,2013-09-03 09:53:00
6:01 AM,57.9,54.0,87,29.88,10.0,West,3.5,-,N/A,,Mostly Cloudy,260,2013-09-03 10:01:00
6:32 AM,57.9,54.0,87,29.89,10.0,WNW,5.8,-,N/A,,Overcast,300,2013-09-03 10:32:00
6:53 AM,57.9,54.0,87,29.86,10.0,WNW,6.9,-,N/A,,Overcast,300,2013-09-03 10:53:00
7:05 AM,57.0,54.0,89,29.89,10.0,West,6.9,-,N/A,,Overcast,280,2013-09-03 11:05:00
7:13 AM,57.9,54.0,87,29.90,10.0,WNW,5.8,-,N/A,,Overcast,290,2013-09-03 11:13:00
7:53 AM,57.9,54.0,87,29.88,10.0,West,4.6,-,N/A,,Overcast,260,2013-09-03 11:53:00
8:33 AM,57.9,54.0,87,29.91,10.0,WNW,8.1,-,N/A,,Overcast,290,2013-09-03 12:33:00
8:53 AM,59.0,54.0,83,29.88,10.0,West,8.1,-,N/A,,Overcast,280,2013-09-03 12:53:00
9:10 AM,60.1,54.0,80,29.91,10.0,West,10.4,17.3,N/A,,Mostly Cloudy,260,2013-09-03 13:10:00
9:41 AM,60.1,52.0,75,29.92,10.0,WNW,9.2,21.9,N/A,,Overcast,290,2013-09-03 13:41:00
9:53 AM,60.1,52.0,75,29.90,10.0,West,8.1,-,N/A,,Overcast,260,2013-09-03 13:53:00
10:37 AM,59.0,54.0,83,29.93,7.0,WNW,9.2,-,0.00,,Overcast,290,2013-09-03 14:37:00
10:53 AM,59.0,54.0,83,29.92,6.0,WNW,10.4,-,0.00,,Haze,290,2013-09-03 14:53:00
11:01 AM,57.9,53.1,84,29.94,1.8,West,10.4,-,0.01,Rain,Light Rain,270,2013-09-03 15:01:00
11:07 AM,57.9,54.0,87,29.94,2.5,Variable,6.9,-,0.01,Rain,Light Rain,0,2013-09-03 15:07:00
11:24 AM,60.1,55.9,86,29.94,9.0,WNW,8.1,-,0.02,Rain,Light Rain,290,2013-09-03 15:24:00
11:49 AM,59.0,55.4,88,29.94,2.5,WNW,9.2,-,0.02,Rain,Light Rain,290,2013-09-03 15:49:00
11:50 AM,59.0,55.4,88,29.94,2.0,West,8.1,-,0.03,Rain,Light Rain,280,2013-09-03 15:50:00
11:53 AM,59.0,55.0,87,29.92,2.0,Variable,6.9,-,0.03,Rain,Light Rain,0,2013-09-03 15:53:00
12:03 PM,59.0,55.0,87,29.94,2.5,West,8.1,-,0.00,Rain,Light Rain,270,2013-09-03 16:03:00
12:11 PM,59.0,55.0,87,29.94,7.0,West,9.2,-,0.00,Rain,Light Rain,280,2013-09-03 16:11:00
12:28 PM,60.1,55.0,83,29.94,10.0,West,12.7,-,0.00,,Overcast,280,2013-09-03 16:28:00
12:53 PM,59.0,55.0,87,29.93,4.0,West,10.4,-,0.00,Rain,Light Rain,280,2013-09-03 16:53:00
1:23 PM,62.1,55.0,78,29.95,10.0,West,11.5,16.1,0.00,,Mostly Cloudy,280,2013-09-03 17:23:00
1:48 PM,60.8,53.6,77,29.94,8.0,WNW,8.1,-,0.00,Rain,Light Rain,290,2013-09-03 17:48:00
1:53 PM,60.1,54.0,80,29.93,7.0,West,8.1,-,0.00,Rain,Light Rain,280,2013-09-03 17:53:00
2:53 PM,60.1,54.0,80,29.94,10.0,West,9.2,-,0.00,Rain,Light Rain,280,2013-09-03 18:53:00
3:53 PM,60.1,54.0,80,29.94,8.0,West,9.2,-,0.00,Rain,Light Rain,270,2013-09-03 19:53:00
4:10 PM,61.0,54.0,78,29.95,10.0,West,12.7,18.4,0.00,,Overcast,270,2013-09-03 20:10:00
4:42 PM,60.1,55.0,83,29.96,4.0,West,10.4,-,0.00,Rain,Light Rain,280,2013-09-03 20:42:00
4:46 PM,59.0,55.0,87,29.96,3.0,West,10.4,18.4,0.00,Rain,Light Rain,280,2013-09-03 20:46:00
4:53 PM,59.0,55.0,87,29.94,5.0,West,11.5,-,0.00,Rain,Light Rain,280,2013-09-03 20:53:00
5:13 PM,60.1,55.0,83,29.96,5.0,West,8.1,-,0.00,,Haze,270,2013-09-03 21:13:00
5:23 PM,59.0,55.9,90,29.96,2.0,WNW,8.1,-,0.01,Rain,Light Rain,290,2013-09-03 21:23:00
5:27 PM,59.0,55.9,90,29.96,2.5,WNW,9.2,-,0.01,Rain,Light Rain,290,2013-09-03 21:27:00
5:31 PM,59.0,55.9,90,29.96,3.0,West,8.1,-,0.01,Rain,Light Rain,280,2013-09-03 21:31:00
5:53 PM,59.0,55.0,87,29.96,6.0,WNW,11.5,-,0.01,Rain,Light Rain,290,2013-09-03 21:53:00
5:57 PM,59.0,55.0,87,29.97,10.0,WNW,10.4,-,0.00,,Overcast,300,2013-09-03 21:57:00
6:06 PM,59.0,55.0,87,29.97,10.0,WNW,8.1,-,0.00,,Overcast,290,2013-09-03 22:06:00
6:13 PM,59.0,55.0,87,29.97,10.0,West,9.2,-,0.00,,Overcast,280,2013-09-03 22:13:00
6:32 PM,59.0,55.0,87,29.97,3.0,West,8.1,-,0.01,Rain,Rain,280,2013-09-03 22:32:00
6:44 PM,59.0,55.0,87,29.97,10.0,West,4.6,-,0.01,Rain,Light Rain,280,2013-09-03 22:44:00
6:48 PM,59.0,55.4,88,29.97,10.0,West,6.9,-,0.01,,Overcast,280,2013-09-03 22:48:00
6:53 PM,59.0,55.0,87,29.96,10.0,West,6.9,-,0.01,,Overcast,280,2013-09-03 22:53:00
7:02 PM,57.9,55.0,90,29.97,2.5,West,4.6,-,0.01,Rain,Light Rain,280,2013-09-03 23:02:00
7:15 PM,57.9,55.0,90,29.97,3.0,West,5.8,-,0.02,Rain,Light Rain,280,2013-09-03 23:15:00
7:26 PM,57.9,55.0,90,29.98,5.0,West,6.9,-,0.02,Rain,Light Rain,280,2013-09-03 23:26:00
7:32 PM,57.9,55.0,90,29.98,10.0,West,9.2,-,0.02,Rain,Light Rain,280,2013-09-03 23:32:00
7:53 PM,57.9,55.0,90,29.96,6.0,West,5.8,-,0.02,Rain,Light Rain,280,2013-09-03 23:53:00
8:01 PM,57.9,55.0,90,29.98,7.0,WNW,9.2,-,0.00,Rain,Light Rain,290,2013-09-04 00:01:00
8:16 PM,57.9,55.0,90,29.99,10.0,WNW,6.9,-,0.00,,Overcast,290,2013-09-04 00:16:00
8:53 PM,57.9,55.0,90,29.99,10.0,West,4.6,-,0.00,,Overcast,280,2013-09-04 00:53:00
9:30 PM,57.9,55.0,90,30.02,10.0,WNW,5.8,-,N/A,,Overcast,290,2013-09-04 01:30:00
9:53 PM,57.9,55.0,90,30.01,10.0,West,5.8,-,N/A,,Overcast,270,2013-09-04 01:53:00
10:02 PM,57.9,55.0,90,30.02,10.0,West,6.9,-,N/A,,Overcast,270,2013-09-04 02:02:00
10:16 PM,57.9,55.0,90,30.02,10.0,West,5.8,-,N/A,,Overcast,280,2013-09-04 02:16:00
10:24 PM,57.9,55.0,90,30.02,10.0,West,6.9,-,N/A,,Overcast,280,2013-09-04 02:24:00
10:53 PM,57.0,54.0,89,30.01,10.0,West,6.9,-,N/A,,Mostly Cloudy,280,2013-09-04 02:53:00
11:29 PM,57.0,54.0,89,30.03,10.0,West,5.8,-,N/A,,Mostly Cloudy,280,2013-09-04 03:29:00
11:53 PM,57.9,54.0,87,30.02,10.0,West,6.9,-,N/A,,Overcast,270,2013-09-04 03:53:00